Scottsbluff, NE

9:05 PM MST on November 17, 2019 (GMT -0700)
Heilig

Weather History for KBFF - September, 2019

Change the Weather History Date:

Wednesday, September 11, 2019

  Actual Average Record
Temperature  
Mean Temperature 62 °F -  
Max Temperature 66 °F 78 °F 95 °F (2016)
Min Temperature 57 °F 49 °F 33 °F (1974)
Degree Days  
Heating Degree Days 4    
Growing Degree Days 12 (Base 50)    
Moisture  
Dew Point 59 °F    
Average Humidity 90    
Maximum Humidity 97    
Minimum Humidity 23    
Precipitation  
Precipitation 0.04 in - - ()
Sea Level Pressure  
Sea Level Pressure 29.93 in    
Wind  
Wind Speed 5 mph (NNW)    
Max Wind Speed 13 mph    
Max Gust Speed -    
Visibility 7 miles    
Events Rain , Thunderstorm    
Averages and records for this station are not official NWS values.
T = Trace of Precipitation, MM = Missing Value Source: NWS Daily Summary

Daily Weather History Graph

Daily Weather History Graph

Search for Another Location

Airport or City:

Astronomy

Sep. 11, 2019 Rise Set
Actual Time 6:30 AM MDT 7:11 PM MDT
Civil Twilight 6:02 AM MDT 7:39 PM MDT
Nautical Twilight 5:28 AM MDT 8:12 PM MDT
Astronomical Twilight 4:54 AM MDT 8:46 PM MDT
Moon 6:27 PM MDT (9/11) 3:51 AM MDT (9/11)
Length of Visible Light 13h 37m
Length of Day
12h 40m
Waxing Gibbous, 95% of the Moon is Illuminated
Sep 11
Waxing Gibbous
Sep 13
Full
Sep 21
Last Quarter
Sep 28
New
Oct 5
First Quarter

Hourly Weather History & Observations

Time (MDT) Temp. Dew Point Humidity Pressure Visibility Wind Dir Wind Speed Gust Speed Precip Events Conditions
12:01 AM 61.0 °F - N/A% 29.94 in 10.0 mi NW 5.8 mph - 0.00 in Rain , Thunderstorm Light Rain
12:26 AM 60.1 °F - N/A% 29.95 in 10.0 mi ESE 5.8 mph - 0.00 in Rain , Thunderstorm Light Thunderstorms and Rain
12:53 AM 60.1 °F - N/A% 29.82 in 10.0 mi NNW 6.9 mph - 0.04 in Rain Light Rain
1:53 AM 59.0 °F - N/A% 29.82 in 10.0 mi East 4.6 mph - 0.00 in   Clear
2:10 AM 59.0 °F - N/A% 29.94 in 10.0 mi North 4.6 mph - N/A   Mostly Cloudy
2:53 AM 60.1 °F - N/A% 29.83 in 10.0 mi NNW 3.5 mph - N/A   Overcast
3:22 AM 59.0 °F - N/A% 29.96 in 10.0 mi NW 4.6 mph - N/A   Overcast
3:53 AM 59.0 °F - N/A% 29.86 in 10.0 mi WNW 4.6 mph - N/A   Overcast
4:10 AM 59.0 °F - N/A% 29.99 in 10.0 mi WNW 4.6 mph - N/A   Overcast
4:53 AM 60.1 °F - N/A% 29.86 in 10.0 mi NW 4.6 mph - N/A   Overcast
5:15 AM 60.1 °F - N/A% 29.99 in 10.0 mi NW 5.8 mph - N/A   Overcast
5:53 AM 60.1 °F - N/A% 29.86 in 10.0 mi NNW 5.8 mph - N/A   Overcast
6:16 AM 61.0 °F - N/A% 29.98 in 10.0 mi North 5.8 mph - N/A   Overcast
6:53 AM 61.0 °F - N/A% 29.90 in 5.0 mi NNW 4.6 mph - N/A   Haze
7:15 AM 60.1 °F - N/A% 29.99 in 2.5 mi Calm Calm - N/A   Overcast
7:22 AM 60.1 °F - N/A% 30.00 in 1.8 mi North 4.6 mph - N/A   Overcast
7:53 AM 60.1 °F 59.0 °F 96% 29.90 in 2.0 mi North 4.6 mph - N/A   Overcast
8:29 AM 61.0 °F 60.1 °F 97% 29.99 in 1.8 mi Calm Calm - N/A   Overcast
8:53 AM 61.0 °F 60.1 °F 97% 29.90 in 1.2 mi Calm Calm - 0.00 in Rain Light Rain
9:53 AM 62.1 °F 60.1 °F 93% 29.90 in 1.5 mi Calm Calm - 0.01 in   Overcast
10:08 AM 62.1 °F 60.1 °F 93% 29.99 in 2.0 mi Calm Calm - N/A   Overcast
10:13 AM 62.1 °F 61.0 °F 96% 29.99 in 1.8 mi Calm Calm - N/A   Overcast
10:38 AM 61.0 °F 60.1 °F 97% 29.99 in 1.2 mi WNW 5.8 mph - N/A   Overcast
10:53 AM 61.0 °F 60.1 °F 97% 29.90 in 2.0 mi West 5.8 mph - N/A   Overcast
11:04 AM 61.0 °F 60.1 °F 97% 29.98 in 1.8 mi WNW 5.8 mph - N/A   Overcast
11:33 AM 62.1 °F 61.0 °F 96% 29.97 in 2.5 mi WNW 4.6 mph - N/A   Overcast
11:51 AM 62.6 °F 60.8 °F 94% 29.97 in 2.5 mi Calm Calm - N/A   Overcast
11:53 AM 62.1 °F 61.0 °F 96% 29.88 in 2.5 mi Calm Calm - N/A   Overcast
12:06 PM 63.0 °F 61.0 °F 93% 29.96 in 2.0 mi ESE 3.5 mph - N/A   Overcast
12:19 PM 63.0 °F 61.0 °F 93% 29.95 in 4.0 mi Calm Calm - N/A   Overcast
12:53 PM 64.0 °F 62.1 °F 93% 29.88 in 7.0 mi WNW 10.4 mph - N/A   Overcast
1:53 PM 64.0 °F 61.0 °F 90% 29.88 in 9.0 mi WNW 11.5 mph - N/A   Overcast
2:45 PM 63.0 °F 60.1 °F 90% 29.98 in 8.0 mi NW 10.4 mph - N/A   Overcast
2:53 PM 64.0 °F 61.0 °F 90% 29.89 in 8.0 mi NNW 9.2 mph - N/A   Overcast
3:06 PM 64.9 °F 60.1 °F 84% 29.98 in 10.0 mi North 9.2 mph - N/A   Overcast
3:53 PM 66.9 °F 61.0 °F 81% 29.87 in 10.0 mi NNW 11.5 mph - N/A   Mostly Cloudy
4:53 PM 64.0 °F 60.1 °F 87% 29.89 in 10.0 mi North 8.1 mph - N/A   Clear
5:23 PM 63.0 °F 60.1 °F 90% 30.00 in 10.0 mi WNW 12.7 mph - N/A Thunderstorm Scattered Clouds
5:38 PM 62.1 °F 60.1 °F 93% 29.98 in 10.0 mi NW 9.2 mph - 0.01 in Rain Light Rain
5:53 PM 62.1 °F 60.1 °F 93% 29.88 in 10.0 mi NNW 6.9 mph - 0.01 in   Scattered Clouds
6:53 PM 62.1 °F 57.0 °F 84% 29.91 in 10.0 mi NW 9.2 mph - N/A   Mostly Cloudy
7:53 PM 60.1 °F 57.0 °F 90% 29.94 in 8.0 mi NNE 4.6 mph - 0.04 in Rain Light Rain
8:53 PM 60.1 °F 57.0 °F 90% 29.93 in 10.0 mi SSE 3.5 mph - 0.00 in Rain Light Rain
9:53 PM 57.9 °F 57.0 °F 97% 29.90 in 10.0 mi NW 5.8 mph - 0.00 in Rain Light Rain
11:53 PM 57.9 °F 53.1 °F 84% 29.96 in 10.0 mi WNW 8.1 mph - N/A   Mostly Cloudy